Вернуться в каталог

FENGYUN 1C DEB

АктивенSSO
NORAD 30657·DEBRIS·🇨🇳 China

Запущен May 10, 1999 с Taiyuan Satellite Launch Center

Loading…

Ближайшие Пролёты (ближайшие 24 часа)

TLE

СвежийSource: Space-Track

Эпоха: Sep 14, 2026, 06:12 UTC

1 30657U 99025APP 26257.25872034  .00003753  00000-0  11620-2 0  9999
2 30657  98.8422   9.1931 0015939 243.2473 146.7513 14.41755028 11973

Отслеживайте FENGYUN 1C DEB в реальном времени с AllMySat

Download on the App Store